Location: Lynch Observatory
(39.9540°N, 75.1861°W)
Time: 19:00:02
(UTC-04:00)

DOVE 4 - Pass Details

Date: 25 April 2024
Orbit: 582 x 778 km, 97.7° (Epoch: 28 May)

Event Time Altitude Azimuth Distance (km) Brightness Sun altitude
Rises 00:09:45 0° 348° (NNW) 2,908 ? -35.5°
Reaches altitude 10° 00:13:31 10° 313° (NW) 2,041 ? -35.7°
Enters shadow 00:14:45 11° 297° (WNW) 1,978 ? -35.7°
